Location: Dehesa de la Cepeda
(40.6574°N, 4.3013°W)
Time: 09:15:40
(UTC+00:00)

Vanguard 3 - Pass Details

Date: 01 August 2021
Orbit: 510 x 3260 km, 33.3° (Epoch: 18 September)

Event Time Altitude Azimuth Distance (km) Brightness Sun altitude
Rises 01:58:19 0° 279° (W) 7,196 11.8 -27.4°
Reaches altitude 10° 02:06:24 10° 262° (W) 5,933 11.2 -26.7°
Enters shadow 02:09:15 13° 253° (WSW) 5,552 11.0 -26.4°
